Regional Weather Roundup
Issued by NWS

Home | Current Version | Previous Version | Graphics & Text | Print | Product List | Glossary On
Versions: 1 2 3 4 5 6 7 8 9 10 11 12 13 14 15 16 17 18 19 20 21 22 23 24 25 26 27 28 29 30 31 32 33 34 35 36 37 38 39 40 41 42 43 44 45 46 47 48 49 50
000
ASUS43 KMPX 300110
RWRMN
WEATHER ROUNDUP FOR MINNESOTA
NATIONAL WEATHER SERVICE TWIN CITIES/CHANHASSEN MN
800 PM CDT WED MAR 29 2017


NOTE: "FAIR" INDICATES FEW OR NO CLOUDS BELOW 12,000 FEET WITH NO
SIGNIFICANT WEATHER AND/OR OBSTRUCTIONS TO VISIBILITY. N/A MEANS
CURRENT SKY AND/OR WEATHER CONDITIONS ARE NOT AVAILABLE.

MNZ060>063-068>070-300200-
   Twin Cities Metro

CITY           SKY/WX    TMP DP  RH WIND       PRES   REMARKS
TWIN CITIES    LGT RAIN  45  39  79 SE8       30.16S
ST PAUL        CLOUDY    45  39  79 SE8       30.17S
CRYSTAL        LGT RAIN  45  38  76 CALM      30.14F
BLAINE         DRIZZLE   46  39  76 CALM      30.15F
LAKEVILLE      DRIZZLE   39  39 100 E13       30.15S
EDEN PRAIRIE   LGT RAIN  45  39  79 E9        30.14S
SOUTH ST PAUL  CLOUDY    45  39  80 SE5       30.16S
LAKE ELMO      CLOUDY    45  37  76 SE5       30.17S
$$
MNZ001>005-007-008-013>017-022>024-027-028-300200-
   Northwest Minnesota

CITY           SKY/WX    TMP DP  RH WIND       PRES   REMARKS
BEMIDJI        PTCLDY    46  31  55 SE9       30.08S
HALLOCK        MOCLDY    52  46  82 S13       29.97F
ROSEAU         CLEAR     48  39  71 S8        30.02F
WARROAD        CLEAR     52  37  58 S9        30.03F
THIEF RVR FALL CLOUDY    50  38  63 S8        30.04F
CROOKSTON      CLOUDY    54  39  58 S16       30.03F
FOSSTON        CLEAR     45  36  70 S6        30.07S
DETROIT LAKES  CLOUDY    46  32  57 S8        30.09S
MOORHEAD       CLEAR     52  37  58 S15       30.07S
PARK RAPIDS    MOCLDY    47  31  53 SE10      30.09S
MAHNOMEN       FAIR      46  33  61 S6        30.06F
$$
MNZ006-009>011-018-025>026-300200-
   North Central Minnesota

CITY           SKY/WX    TMP DP  RH WIND       PRES   REMARKS
BAUDETTE       CLEAR     50  29  44 S9        30.05F
FLAG ISLAND    MOCLDY    39  30  70 S6        30.03S
INTL FALLS     PTCLDY    44  30  57 SE8       30.10F
WASKISH        PTCLDY    48  34  57 SE6       30.08S
BIG FORK       CLOUDY    45  32  61 SE7       30.13S
LONGVILLE      PTCLDY    45  34  65 SE3       30.13S
GRAND RAPIDS   PTCLDY    40  30  67 SE7       30.17S
CRANE LAKE     PTCLDY    39  27  60 CALM      30.18S
ORR            PTCLDY    41  27  56 CALM      30.13S
COOK           PTCLDY    39  27  60 SE5       30.17S
WALKER         FAIR      47  31  53 SE9G16    30.10F
$$
MNZ012-019>021-037-300200-
   Northeast Minnesota

CITY           SKY/WX    TMP DP  RH WIND       PRES   REMARKS
DULUTH         CLOUDY    32  27  81 E10       30.19F WCI  24
ELY            PTCLDY    34  23  64 SE5       30.19F WCI  30
HIBBING        MOCLDY    36  28  73 SE8       30.16F
EVELETH        PTCLDY    37  24  57 E3        30.19S
DULUTH HARBOR  CLOUDY    36  32  87 NE21      30.24S
TWO HARBORS    CLOUDY    36  28  75 NE7       30.20F
GRAND MARAIS     N/A     35  28  75 E12       30.26F WCI  27
G MARAIS ARPRT CLOUDY    28  19  69 NE5       30.22F WCI  23
$$
MNZ029>031-032-039>041-046>048-054>057-064-300200-
   West Central Minnesota

CITY           SKY/WX    TMP DP  RH WIND       PRES   REMARKS
FERGUS FALLS   PTCLDY    46  36  66 S12       30.13R
WHEATON        CLOUDY    46  36  66 SE9       30.12R
MORRIS         MOCLDY    45  37  76 SE13      30.10F
ALEXANDRIA     MOCLDY    44  35  70 SE7       30.12F
ELBOW LAKE     FAIR      45  37  73 S10       30.11S
WADENA         MOCLDY    45  36  70 SE8       30.10F
GLENWOOD       MOCLDY    43  37  81 SE9       30.12F
APPLETON       CLOUDY    45  39  81 SE8       30.11F
BENSON         CLOUDY    46  37  71 S5        30.14F
ORTONVILLE     MOCLDY    45  37  76 SE8       30.10F
MADISON        CLOUDY    46  41  81 SE7       30.10F
WILLMAR        CLOUDY    45  41  87 SE10      30.13F
$$
MNZ033>034-036-042>043-049>051-058-059-300200-
   Central Minnesota

CITY           SKY/WX    TMP DP  RH WIND       PRES   REMARKS
ST CLOUD       CLOUDY    45  38  76 SE5       30.13F
SAUK CENTRE    FAIR      42  37  80 S6        30.13S
PAYNESVILLE    CLOUDY    43  38  82 SE3       30.14F
AITKIN         CLOUDY    43  30  61 E7        30.14F
PINE RIVER     CLOUDY    45  34  65 SE3       30.16S
BRAINERD       MOCLDY    45  32  60 SE3       30.14S
STAPLES        MOCLDY    46  32  57 SE7       30.12S
LONG PRAIRIE   FAIR      43  34  70 SE6       30.13F
LITTLE FALLS   CLOUDY    45  32  61 E3        30.13F
LITCHFIELD     DRIZZLE   45  43  93 E7        30.14F
BUFFALO        DRIZZLE   43  39  85 SE3       30.15F
MAPLE LAKE     LGT RAIN  45  41  86 SE3       30.15F
HUTCHINSON     DRIZZLE   42  41  95 E9        30.14F
$$
MNZ037-044-045-052-053-300200-
   East Central Minnesota

CITY           SKY/WX    TMP DP  RH WIND       PRES   REMARKS
PRINCETON      CLOUDY    46  36  66 CALM      30.15F
MORA           CLOUDY    43  34  70 NE3       30.17F
CAMBRIDGE      CLOUDY    48  36  61 E3        30.14F
RUSH CITY      CLOUDY    45  34  65 CALM      30.15F
MOOSE LAKE     CLOUDY    34  30  86 E7        30.17F WCI  28
CLOQUET        CLOUDY    32  28  86 E8        30.19S WCI  25
MCGREGOR       CLOUDY    36  32  87 E7        30.17S
$$
MNZ071>073-080-081-089-090-097-098-300200-
   Southwest Minnesota

CITY           SKY/WX    TMP DP  RH WIND       PRES   REMARKS
MONTEVIDEO     CLOUDY    43  39  87 S12       30.12S
GRANITE FALLS  CLOUDY    44  40  87 E10       30.13S
CANBY          CLOUDY    44  39  83 SE14G20   30.10F
MARSHALL       CLOUDY    41  38  89 E14       30.09F
REDWOOD FALLS  LGT RAIN  42  38  85 E10G20    30.10F
OLIVIA         DRIZZLE   41  37  87 E13G18    30.11F
PIPESTONE      LGT RAIN  39  34  81 E13       30.04F
WINDOM         RAIN      39  37  93 E18G24    30.06F
WORTHINGTON    LGT RAIN  38  36  92 E21       30.03F
JACKSON        LGT RAIN  36  36 100 E21       30.04F
TRACY          DRIZZLE   41  40  94 E17       30.08F
SLAYTON        LGT RAIN  38  37  94 E14       30.06F
$$
MNZ065>067-074>077-082>085-091>093-300200-
   South Central Minnesota

CITY           SKY/WX    TMP DP  RH WIND       PRES   REMARKS
MANKATO        LGT RAIN  40  37  89 E20G26    30.10F
NEW ULM        DRIZZLE   39  37  93 E10       30.10F
ST JAMES       LGT RAIN  39  37  93 E18       30.09F
FAIRMONT       LGT RAIN  39  37  92 E20       30.06F
GLENCOE        DRIZZLE   42  42 100 E9        30.13F
FARIBAULT      LGT RAIN  39  39 100 E12G17    30.13F
OWATONNA       LGT RAIN  39  37  93 E15       30.11F
WASECA         LGT RAIN  39  36  87 E16G25    30.11F
ALBERT LEA     LGT RAIN  39  37  93 E16       30.07F
$$
MNZ078>079-086>088-094>096-300200-
   Southeast Minnesota

CITY           SKY/WX    TMP DP  RH WIND       PRES   REMARKS
ROCHESTER      LGT RAIN  39  37  92 E16G25    30.11F
RED WING       LGT RAIN  43  39  87 SE8G16    30.16S
STANTON        LGT RAIN  42  38  85 E15G21    30.14S
DODGE CENTER   LGT RAIN  39  37  93 E20G25    30.10F
WINONA         RAIN      41  37  87 E8        30.16F
AUSTIN         LGT RAIN  39  36  87 E17G23    30.08F
PRESTON        LGT RAIN  39  36  89 E17G24    30.11F
$$
ABBREVIATIONS USED IN REMARKS
   TC - TEMPERATURES IN CELSIUS
  WCI - WIND CHILL INDEX
   HX - HEAT INDEX
  VSB - VISIBILITY
$$




USA.gov is the U.S. government's official web portal to all federal, state and local government web resources and services.